Tracking 29892 objects as of 21-Nov-2024
HD Live streaming from Space Station
objects crossing your sky now

STARLINK-30925

Track STARLINK-30925 now!
10-day predictions
STARLINK-30925 is classified as:


NORAD ID: 58406
Int'l Code: 2023-180E
Perigee: 565.4 km
Apogee: 567.0 km
Inclination: 43.0 °
Period: 95.8 minutes
Semi major axis: 6937 km
RCS: Unknown
Launch date: November 22, 2023
Source: United States (US)
Launch site: AIR FORCE EASTERN TEST RANGE (AFETR)
Your satellite tracking list
Your tracking list is empty




NASA's NSSDC Master Catalog

Two Line Element Set (TLE):
1 58406U 23180E   24325.78286014  .00002437  00000-0  19541-3 0  9998
2 58406  43.0034 111.4101 0001205 272.1749  87.8955 15.02542409 56182
Source of the keplerian elements: AFSPC